DW4070 Weather Reports


time (UTC)temp
C
wind
direction
speed
KPH
gust
KPH
rain 1hr
cm
rain 24hr
cm
rain mn
cm
humidity
%
barometer
mb
20260506163028 17 263 0.0 8.0 0.00 0.00 0.00 77 1010.7
20260506161533 17 265 1.6 8.0 0.00 0.00 0.00 75 1010.5
20260506160028 18 235 0.0 8.0 0.00 0.00 0.00 75 1010.6
20260506154526 18 183 1.6 14.5 0.00 0.00 0.00 72 1010.6
20260506153024 18 275 0.0 12.9 0.00 0.00 0.00 73 1010.8
20260506151524 18 275 0.0 12.9 0.00 0.00 0.00 71 1010.7
20260506150023 18 261 1.6 8.0 0.00 0.00 0.00 73 1010.8
20260506144522 18 263 1.6 6.4 0.00 0.00 0.00 72 1010.6
20260506143026 18 203 1.6 9.7 0.00 0.00 0.00 73 1010.7
20260506141523 18 268 1.6 11.3 0.00 0.00 0.00 73 1010.9
20260506140020 18 281 1.6 11.3 0.00 0.00 0.00 74 1011.0
20260506134515 17 272 3.2 17.7 0.00 0.00 0.00 76 1011.0
20260506133011 17 281 1.6 9.7 0.00 0.00 0.00 78 1011.1
20260506131508 16 268 0.0 4.8 0.00 0.00 0.00 81 1010.8
20260506130006 16 150 0.0 9.7 0.00 0.00 0.00 81 1010.8
20260506124505 16 264 1.6 8.0 0.00 0.00 0.00 81 1010.8
20260506123002 16 210 0.0 3.2 0.00 0.00 0.00 82 1011.0
20260506121501 15 266 1.6 8.0 0.00 0.00 0.00 84 1011.2
20260506120111 14 167 3.2 8.0 0.00 0.00 0.00 88 1011.5
20260506114559 13 163 0.0 4.8 0.00 0.00 0.00 93 1011.5
20260506113100 12 173 0.0 3.2 0.00 0.00 0.00 95 1011.3
20260506111559 11 263 0.0 0.0 0.00 0.00 0.00 94 1011.3
20260506110057 11 263 0.0 0.0 0.00 0.00 0.00 94 1011.6
20260506104559 11 263 0.0 0.0 0.00 0.00 0.00 93 1011.4
20260506103055 10 263 0.0 0.0 0.00 0.00 0.00 93 1011.4
20260506101553 10 263 0.0 0.0 0.00 0.00 0.00 93 1011.3
20260506094605 11 263 0.0 0.0 0.00 0.00 0.00 92 1011.1
20260506093048 11 263 0.0 0.0 0.00 0.00 0.00 92 1011.3
20260506091547 11 263 0.0 0.0 0.00 0.00 0.00 92 1011.2
20260506090045 11 263 0.0 0.0 0.00 0.00 0.00 92 1011.4
20260506084546 11 263 0.0 0.0 0.00 0.00 0.00 91 1011.5
20260506083043 11 263 0.0 0.0 0.00 0.00 0.00 91 1011.5
20260506081540 11 263 0.0 0.0 0.00 0.00 0.00 91 1011.5
20260506073035 12 263 0.0 0.0 0.00 0.00 0.00 90 1011.6
20260506071532 12 263 0.0 0.0 0.00 0.00 0.00 89 1011.8
20260506061528 12 263 0.0 0.0 0.00 0.00 0.00 87 1011.7
20260506044512 15 262 0.0 3.2 0.00 0.00 0.00 80 1012.1
20260506043009 15 198 0.0 0.0 0.00 0.00 0.00 79 1012.1
20260506041506 15 217 0.0 0.0 0.00 0.00 0.00 77 1012.0
20260506040006 15 247 0.0 0.0 0.00 0.00 0.00 74 1012.0
20260506034504 16 204 0.0 4.8 0.00 0.00 0.00 73 1011.9
20260506033002 16 235 0.0 3.2 0.00 0.00 0.00 71 1011.9
20260506031506 16 262 0.0 3.2 0.00 0.00 0.00 70 1011.8
20260506030003 17 264 0.0 3.2 0.00 0.00 0.00 69 1011.8
20260506024503 17 232 0.0 6.4 0.00 0.00 0.00 69 1011.8
20260506023106 17 265 0.0 3.2 0.00 0.00 0.00 68 1011.8
20260506021601 17 265 0.0 11.3 0.00 0.00 0.00 67 1011.9
20260506014558 17 189 1.6 9.7 0.00 0.00 0.00 66 1011.5
20260506013102 17 263 1.6 16.1 0.00 0.00 0.00 66 1011.3
20260506011622 18 281 0.0 3.2 0.00 0.00 0.00 66 1011.2
20260506010115 18 281 0.0 4.8 0.00 0.00 0.00 64 1011.1
20260506004556 18 281 0.0 3.2 0.00 0.00 0.00 63 1010.9
20260506003057 18 281 0.0 8.0 0.00 0.00 0.00 61 1010.7
20260506001558 19 281 1.6 9.7 0.00 0.00 0.00 61 1010.5
20260506000059 19 281 1.6 14.5 0.00 0.00 0.00 60 1010.3
20260505234553 20 265 1.6 9.7 0.00 0.00 0.00 60 1010.2
20260505233053 20 262 3.2 16.1 0.00 0.00 0.00 58 1009.9
20260505231554 20 264 0.0 8.0 0.00 0.00 0.00 58 1009.7
20260505230058 21 185 3.2 16.1 0.00 0.00 0.00 58 1009.7
20260505224552 21 269 0.0 6.4 0.00 0.00 0.00 58 1009.3
20260505223050 21 190 1.6 9.7 0.00 0.00 0.00 56 1009.2
20260505221600 21 167 1.6 12.9 0.00 0.00 0.00 55 1009.4
20260505220100 21 224 1.6 11.3 0.00 0.00 0.00 54 1009.3
20260505214553 22 272 0.0 8.0 0.00 0.00 0.00 54 1009.2
20260505213048 22 236 1.6 9.7 0.00 0.00 0.00 54 1009.1
20260505211546 22 273 4.8 12.9 0.00 0.00 0.00 54 1009.2
20260505210051 22 284 1.6 14.5 0.00 0.00 0.00 53 1009.0
20260505204554 23 280 1.6 11.3 0.00 0.00 0.00 55 1009.2
20260505203041 23 271 1.6 11.3 0.00 0.00 0.00 56 1009.1
20260505201543 23 262 1.6 16.1 0.00 0.00 0.00 53 1009.4
20260505200039 23 181 6.4 24.1 0.00 0.00 0.00 51 1009.5
20260505194537 23 264 3.2 16.1 0.00 0.00 0.00 54 1009.7
20260505193041 23 276 4.8 12.9 0.00 0.00 0.00 52 1010.0
20260505191532 23 212 4.8 22.5 0.00 0.00 0.00 52 1010.0
20260505190029 24 275 1.6 19.3 0.00 0.00 0.00 50 1010.3
20260505184528 25 272 4.8 14.5 0.00 0.00 0.00 48 1010.5
20260505183035 25 282 1.6 14.5 0.00 0.00 0.00 49 1010.5
20260505181528 26 215 8.0 22.5 0.00 0.00 0.00 46 1010.4
20260505180024 26 268 0.0 17.7 0.00 0.00 0.00 46 1010.4
20260505174518 25 266 1.6 22.5 0.00 0.00 0.00 50 1010.6
20260505173015 25 270 3.2 14.5 0.00 0.00 0.00 46 1010.7
20260505171512 25 271 1.6 12.9 0.00 0.00 0.00 53 1010.8
20260505170011 25 286 1.6 16.1 0.00 0.00 0.00 48 1011.1
20260505164507 24 207 3.2 12.9 0.00 0.00 0.00 51 1011.4